This demonstration page uses our WeatherBlox Daily Observations layout. Learn more.

Left ArrowRight Arrow

Hourly Observations for December 16, 2021

Temp ( °F °C ) Dew Point ( °F °C ) Humidity (%) Winds ( mph kmh ) Pressure ( in mb ) Visibility ( mi km ) Precip ( " mm )
12:53 am 00:53 Clear -4 -20 -8 -22.2 83 83 E 3 6 30.03 1017 10 16 0.00 0.00
1:53 am 01:53 Clear -2 -18.9 -6 -21.1 83 83 E 5 7 30.01 1016 10 16 0.00 0.00
2:53 am 02:53 Clear -2 -18.9 -6 -21.1 83 83 E 6 9 29.99 1016 10 16 0.00 0.00
3:53 am 03:53 Clear -3 -19.4 -7 -21.7 82 82 E 5 7 30.00 1016 10 16 0.00 0.00
4:53 am 04:53 Clear -5 -20.6 -9 -22.8 83 83 E 6 9 29.99 1016 10 16 0.00 0.00
5:53 am 05:53 Clear -3 -19.4 -8 -22.2 79 79 E 9 15 29.98 1015 10 16 0.00 0.00
6:53 am 06:53 Clear -5 -20.6 -9 -22.8 83 83 E 6 9 30.00 1016 10 16 0.00 0.00
7:53 am 07:53 Clear -5 -20.6 -10 -23.3 79 79 E 8 13 30.00 1016 10 16 0.00 0.00
8:53 am 08:53 Sunny -4 -20 -9 -22.8 79 79 ENE 7 11 29.99 1016 10 16 0.00 0.00
9:53 am 09:53 Sunny -1 -18.3 -5 -20.6 82 82 E 8 13 29.98 1015 10 16 0.00 0.00
10:53 am 10:53 Sunny 1 -17.2 -3 -19.4 83 83 ENE 7 11 29.97 1015 10 16 0.00 0.00
11:53 am 11:53 Sunny 4 -15.6 -2 -18.9 76 76 ENE 7 11 29.93 1014 10 16 0.00 0.00
12:53 pm 12:53 Mostly Sunny 7 -13.9 1 -17.2 76 76 ENE 8 13 29.92 1013 10 16 0.00 0.00
1:53 pm 13:53 Sunny 9 -12.8 2 -16.7 73 73 E 7 11 29.90 1013 10 16 0.00 0.00
2:53 pm 14:53 Sunny 8 -13.3 2 -16.7 76 76 ENE 8 13 29.90 1012 10 16 0.00 0.00
3:53 pm 15:53 Cloudy 9 -12.8 3 -16.1 77 77 ENE 9 15 29.91 1013 10 16 0.00 0.00
4:53 pm 16:53 Cloudy 9 -12.8 4 -15.6 80 80 ENE 10 17 29.91 1013 10 16 0.00 0.00
5:53 pm 17:53 Cloudy 9 -12.8 4 -15.6 80 80 ENE 10 17 29.93 1014 10 16 0.00 0.00
6:53 pm 18:53 Cloudy with Light Snow 9 -12.8 4 -15.6 80 80 E 10 17 29.93 1014 5 8 0.00 0.00
7:53 pm 19:53 Cloudy 8 -13.3 4 -15.6 83 83 ENE 12 19 29.94 1014 10 16 0.00 0.00
8:28 pm 20:28 Cloudy with Light Snow 8 -13.3 4 -15.6 83 83 NNW 9 15 30.06 1018 4 6 0.00 0.00
8:37 pm 20:37 Cloudy with Light Snow 8 -13.3 4 -15.6 83 83 NNW 12 19 30.06 1018 3 4 0.00 0.00
8:46 pm 20:46 Cloudy with Mist and Fog 8 -13.3 4 -15.6 83 83 N 8 13 30.07 1018 5 8 0.00 0.00
8:53 pm 20:53 Cloudy with Mist and Fog 8 -13.3 4 -15.6 83 83 NNE 6 9 30.00 1016 6 10 0.00 0.00
9:27 pm 21:27 Cloudy with Light Snow 9 -12.8 5 -15 84 84 Calm 30.09 1019 2 3 0.00 0.00
9:35 pm 21:35 Cloudy with Light Snow 9 -12.8 5 -15 84 84 Calm 30.10 1019 1 2 0.00 0.00
9:45 pm 21:45 Cloudy with Light Snow 9 -12.8 5 -15 84 84 Calm 30.10 1019 1 1 0.00 0.00
9:53 pm 21:53 Mostly Cloudy with Light Snow 9 -12.8 5 -15 84 84 W 5 7 30.05 1018 1 1 0.01 0.25
10:02 pm 22:02 Mostly Cloudy with Light Snow 9 -12.8 5 -15 84 84 NW 18 30 30.12 1020 1 1 0.00 0.00
10:07 pm 22:07 Mostly Cloudy with Light Snow 8 -13.3 4 -15.6 83 83 NW 20 31 30.14 1021 1 2 0.01 0.25
10:53 pm 22:53 Windy with Snow Likely 5 -15 1 -17.2 83 83 NW 21 33 30.11 1020 1 2 0.02 0.51
11:48 pm 23:48 Mostly Cloudy with Light Snow 3 -16 0 -18 85 85 WNW 16 26 30.26 1025 1 1 0.00 0.00
11:53 pm 23:53 Mostly Cloudy with Light Snow 4 -15.6 0 -17.8 83 83 NW 18 30 30.15 1021 1 1 0.02 0.51

Powered by AerisWeather